Location: Palomar Mountain Lodge
(33.3110°N, 116.8495°W)
Time: 06:16:59
(UTC-07:00)

Cosmos 1680 Rocket - Pass Details

Date: 19 May 2017
Orbit: 761 x 781 km, 74.1° (Epoch: 28 May)

Event Time Altitude Azimuth Distance (km) Brightness Sun altitude
Exits shadow 21:42:42 47° 148° (SSE) 1,002 3.6 -21.4°
Maximum altitude 21:43:47 57° 103° (ESE) 895 3.5 -21.5°
Drops below altitude 10° 21:48:53 10° 26° (NNE) 2,299 6.2 -22.3°
Sets 21:51:17 0° 22° (NNE) 3,227 7.0 -22.6°
